owner,sensor,date,latitude,longitude,vertical_datum,direction_of_sea_water_velocity,sea_water_speed,upward_sea_water_velocity,qcFlag 
TABS,ioos:station:wmo:42050:1,2008-01-01T00:00:00Z,28.8425,-94.2433,2.0,23.16759086,2.414725657,-99999.0,'11133222,11111222,99999999' 
TABS,ioos:station:wmo:42050:1,2008-01-01T00:30:00Z,28.8425,-94.2433,2.0,323.6102955,4.298150765,-99999.0,'11133222,11111222,99999999' 
TABS,ioos:station:wmo:42050:1,2008-01-01T01:00:00Z,28.8425,-94.2433,2.0,293.5526295,0.850881895,-99999.0,'11133222,11111222,99999999' 
TABS,ioos:station:wmo:42050:1,2008-01-01T01:30:00Z,28.8425,-94.2433,2.0,221.6025593,1.551289786,-99999.0,'11133222,11111222,99999999' 
TABS,ioos:station:wmo:42050:1,2008-01-01T02:00:00Z,28.8425,-94.2433,2.0,205.1676008,3.668242086,-99999.0,'11133222,11111222,99999999' 
TABS,ioos:station:wmo:42050:1,2008-01-01T02:30:00Z,28.8425,-94.2433,2.0,199.7683884,5.70629477,-99999.0,'11133222,11111222,99999999' 
TABS,ioos:station:wmo:42050:1,2008-01-01T03:00:00Z,28.8425,-94.2433,2.0,203.3974987,5.665906812,-99999.0,'11133222,11111222,99999999' 
TABS,ioos:station:wmo:42050:1,2008-01-01T03:30:00Z,28.8425,-94.2433,2.0,219.7792871,8.470920847,-99999.0,'11133222,11111222,99999999' 
TABS,ioos:station:wmo:42050:1,2008-01-01T04:00:00Z,28.8425,-94.2433,2.0,199.1949065,13.10879476,-99999.0,'11111222,11111222,99999999' 
TABS,ioos:station:wmo:42050:1,2008-01-01T04:30:00Z,28.8425,-94.2433,2.0,207.260771,16.19927159,-99999.0,'11111222,11111222,99999999' 
TABS,ioos:station:wmo:42050:1,2008-01-01T05:00:00Z,28.8425,-94.2433,2.0,216.2869918,20.25904736,-99999.0,'11111222,11111222,99999999' 
TABS,ioos:station:wmo:42050:1,2008-01-01T05:30:00Z,28.8425,-94.2433,2.0,216.169787,22.43367335,-99999.0,'11111222,11111222,99999999' 
TABS,ioos:station:wmo:42050:1,2008-01-01T06:00:00Z,28.8425,-94.2433,2.0,213.2116812,22.60204637,-99999.0,'11111222,11111222,99999999' 
TABS,ioos:station:wmo:42050:1,2008-01-01T06:30:00Z,28.8425,-94.2433,2.0,222.6247283,27.64333554,-99999.0,'11111222,11111222,99999999' 
TABS,ioos:station:wmo:42050:1,2008-01-01T07:00:00Z,28.8425,-94.2433,2.0,230.9571612,29.22700977,-99999.0,'11111222,11111222,99999999' 
TABS,ioos:station:wmo:42050:1,2008-01-01T07:30:00Z,28.8425,-94.2433,2.0,221.6930678,29.4221991,-99999.0,'11111222,11111222,99999999' 
TABS,ioos:station:wmo:42050:1,2008-01-01T08:00:00Z,28.8425,-94.2433,2.0,238.0496823,30.68907297,-99999.0,'11111222,11111222,99999999' 
TABS,ioos:station:wmo:42050:1,2008-01-01T08:30:00Z,28.8425,-94.2433,2.0,237.7085907,29.76299044,-99999.0,'11111222,11111222,99999999' 
TABS,ioos:station:wmo:42050:1,2008-01-01T09:00:00Z,28.8425,-94.2433,2.0,246.2044081,31.65050553,-99999.0,'11111222,11111222,99999999' 
TABS,ioos:station:wmo:42050:1,2008-01-01T09:30:00Z,28.8425,-94.2433,2.0,246.1866969,33.0648605,-99999.0,'11111222,11111222,99999999' 
TABS,ioos:station:wmo:42050:1,2008-01-01T10:00:00Z,28.8425,-94.2433,2.0,249.9342397,30.34168914,-99999.0,'11111222,11111222,99999999' 
TABS,ioos:station:wmo:42050:1,2008-01-01T10:30:00Z,28.8425,-94.2433,2.0,255.0915959,29.96874539,-99999.0,'11111222,11111222,99999999' 
TABS,ioos:station:wmo:42050:1,2008-01-01T11:00:00Z,28.8425,-94.2433,2.0,260.8543967,25.54470591,-99999.0,'11111222,11111222,99999999' 
TABS,ioos:station:wmo:42050:1,2008-01-01T11:30:00Z,28.8425,-94.2433,2.0,265.0931559,26.65768182,-99999.0,'11111222,11111222,99999999' 
TABS,ioos:station:wmo:42050:1,2008-01-01T12:00:00Z,28.8425,-94.2433,2.0,257.9406336,24.6029104,-99999.0,'11111222,11111222,99999999' 
TABS,ioos:station:wmo:42050:1,2008-01-01T12:30:00Z,28.8425,-94.2433,2.0,266.5216831,26.86948641,-99999.0,'11111222,11111222,99999999' 
TABS,ioos:station:wmo:42050:1,2008-01-01T13:00:00Z,28.8425,-94.2433,2.0,271.7538217,26.47239506,-99999.0,'11111222,11111222,99999999' 
TABS,ioos:station:wmo:42050:1,2008-01-01T13:30:00Z,28.8425,-94.2433,2.0,267.6247347,23.65031289,-99999.0,'11111222,11111222,99999999' 
TABS,ioos:station:wmo:42050:1,2008-01-01T14:00:00Z,28.8425,-94.2433,2.0,272.8727937,22.94883221,-99999.0,'11111222,11111222,99999999' 
TABS,ioos:station:wmo:42050:1,2008-01-01T14:30:00Z,28.8425,-94.2433,2.0,273.6779284,22.60654994,-99999.0,'11111222,11111222,99999999' 
TABS,ioos:station:wmo:42050:1,2008-01-01T15:00:00Z,28.8425,-94.2433,2.0,272.9416872,23.58106444,-99999.0,'11111222,11111222,99999999' 
TABS,ioos:station:wmo:42050:1,2008-01-01T15:30:00Z,28.8425,-94.2433,2.0,270.6082394,21.68121998,-99999.0,'11111222,11111222,99999999' 
TABS,ioos:station:wmo:42050:1,2008-01-01T16:00:00Z,28.8425,-94.2433,2.0,270.6685614,24.0116326,-99999.0,'11111222,11111222,99999999' 
TABS,ioos:station:wmo:42050:1,2008-01-01T16:30:00Z,28.8425,-94.2433,2.0,265.9293116,23.95040918,-99999.0,'11111222,11111222,99999999' 
TABS,ioos:station:wmo:42050:1,2008-01-01T17:00:00Z,28.8425,-94.2433,2.0,265.4174144,24.90961662,-99999.0,'11111222,11111222,99999999' 
TABS,ioos:station:wmo:42050:1,2008-01-01T17:30:00Z,28.8425,-94.2433,2.0,265.9103557,22.57747772,-99999.0,'11111222,11111222,99999999' 
TABS,ioos:station:wmo:42050:1,2008-01-01T18:00:00Z,28.8425,-94.2433,2.0,255.1838362,19.78788771,-99999.0,'11111222,11111222,99999999' 
TABS,ioos:station:wmo:42050:1,2008-01-01T18:30:00Z,28.8425,-94.2433,2.0,256.9308296,18.52993794,-99999.0,'11111222,11111222,99999999' 
TABS,ioos:station:wmo:42050:1,2008-01-01T19:00:00Z,28.8425,-94.2433,2.0,259.9347884,19.85556345,-99999.0,'11111222,11111222,99999999' 
TABS,ioos:station:wmo:42050:1,2008-01-01T19:30:00Z,28.8425,-94.2433,2.0,252.6346428,21.8456609,-99999.0,'11111222,11111222,99999999' 
TABS,ioos:station:wmo:42050:1,2008-01-01T20:00:00Z,28.8425,-94.2433,2.0,244.9387252,20.44470592,-99999.0,'11111222,11111222,99999999' 
TABS,ioos:station:wmo:42050:1,2008-01-01T20:30:00Z,28.8425,-94.2433,2.0,253.2772495,16.61254044,-99999.0,'11111222,11111222,99999999' 
TABS,ioos:station:wmo:42050:1,2008-01-01T21:00:00Z,28.8425,-94.2433,2.0,251.7972661,16.35859713,-99999.0,'11111222,11111222,99999999' 
TABS,ioos:station:wmo:42050:1,2008-01-01T21:30:00Z,28.8425,-94.2433,2.0,251.9676842,16.18493744,-99999.0,'11111222,11111222,99999999' 
TABS,ioos:station:wmo:42050:1,2008-01-01T22:00:00Z,28.8425,-94.2433,2.0,253.0981284,14.6529178,-99999.0,'11111222,11111222,99999999' 
TABS,ioos:station:wmo:42050:1,2008-01-01T22:30:00Z,28.8425,-94.2433,2.0,253.9493555,12.00808061,-99999.0,'11111222,11111222,99999999' 
TABS,ioos:station:wmo:42050:1,2008-01-01T23:00:00Z,28.8425,-94.2433,2.0,260.5556784,15.35815419,-99999.0,'11111222,11111222,99999999' 
TABS,ioos:station:wmo:42050:1,2008-01-01T23:30:00Z,28.8425,-94.2433,2.0,252.5199948,12.51803499,-99999.0,'11111222,11111222,99999999' 
TABS,ioos:station:wmo:42050:1,2008-01-02T00:00:00Z,28.8425,-94.2433,2.0,260.1045649,11.75486282,-99999.0,'11111222,11111222,99999999' 
TABS,ioos:station:wmo:42050:1,2008-01-02T00:30:00Z,28.8425,-94.2433,2.0,248.3177621,15.13048909,-99999.0,'11111222,11111222,99999999' 
TABS,ioos:station:wmo:42050:1,2008-01-02T01:00:00Z,28.8425,-94.2433,2.0,256.3469208,10.5068787,-99999.0,'11111222,11111222,99999999' 
TABS,ioos:station:wmo:42050:1,2008-01-02T01:30:00Z,28.8425,-94.2433,2.0,251.8686262,11.92195454,-99999.0,'11111222,11111222,99999999' 
TABS,ioos:station:wmo:42050:1,2008-01-02T02:00:00Z,28.8425,-94.2433,2.0,247.0419963,8.742459608,-99999.0,'11133222,11111222,99999999' 
TABS,ioos:station:wmo:42050:1,2008-01-02T02:30:00Z,28.8425,-94.2433,2.0,255.776517,8.180770135,-99999.0,'11133222,11111222,99999999' 
TABS,ioos:station:wmo:42050:1,2008-01-02T03:00:00Z,28.8425,-94.2433,2.0,232.6231033,8.368327192,-99999.0,'11133222,11111222,99999999' 
TABS,ioos:station:wmo:42050:1,2008-01-02T03:30:00Z,28.8425,-94.2433,2.0,233.7351211,14.38680298,-99999.0,'11111222,11111222,99999999' 
TABS,ioos:station:wmo:42050:1,2008-01-02T04:00:00Z,28.8425,-94.2433,2.0,239.0496086,14.33042218,-99999.0,'11111222,11111222,99999999' 
TABS,ioos:station:wmo:42050:1,2008-01-02T04:30:00Z,28.8425,-94.2433,2.0,249.7606825,12.05425236,-99999.0,'11111222,11111222,99999999' 
TABS,ioos:station:wmo:42050:1,2008-01-02T05:00:00Z,28.8425,-94.2433,2.0,241.4121492,13.93938664,-99999.0,'11111222,11111222,99999999' 
TABS,ioos:station:wmo:42050:1,2008-01-02T05:30:00Z,28.8425,-94.2433,2.0,215.0017493,14.05146612,-99999.0,'11111222,11111222,99999999' 
TABS,ioos:station:wmo:42050:1,2008-01-02T06:00:00Z,28.8425,-94.2433,2.0,222.3155312,16.4582897,-99999.0,'11111222,11111222,99999999' 
TABS,ioos:station:wmo:42050:1,2008-01-02T06:30:00Z,28.8425,-94.2433,2.0,225.2011247,14.07858303,-99999.0,'11111222,11111222,99999999' 
TABS,ioos:station:wmo:42050:1,2008-01-02T07:00:00Z,28.8425,-94.2433,2.0,213.556974,16.75199093,-99999.0,'11111222,11111222,99999999' 
TABS,ioos:station:wmo:42050:1,2008-01-02T07:30:00Z,28.8425,-94.2433,2.0,212.1945147,19.23800665,-99999.0,'11111222,11111222,99999999' 
TABS,ioos:station:wmo:42050:1,2008-01-02T08:00:00Z,28.8425,-94.2433,2.0,200.1536975,22.34838697,-99999.0,'11111222,11111222,99999999' 
TABS,ioos:station:wmo:42050:1,2008-01-02T08:30:00Z,28.8425,-94.2433,2.0,205.3558919,21.83335522,-99999.0,'11111222,11111222,99999999' 
TABS,ioos:station:wmo:42050:1,2008-01-02T09:00:00Z,28.8425,-94.2433,2.0,206.5647786,22.49484385,-99999.0,'11111222,11111222,99999999' 
TABS,ioos:station:wmo:42050:1,2008-01-02T09:30:00Z,28.8425,-94.2433,2.0,201.3188813,21.17930358,-99999.0,'11111222,11111222,99999999' 
TABS,ioos:station:wmo:42050:1,2008-01-02T10:00:00Z,28.8425,-94.2433,2.0,202.2810556,22.39192935,-99999.0,'11111222,11111222,99999999' 
TABS,ioos:station:wmo:42050:1,2008-01-02T10:30:00Z,28.8425,-94.2433,2.0,227.7923801,18.57654435,-99999.0,'11111222,11111222,99999999' 
TABS,ioos:station:wmo:42050:1,2008-01-02T11:00:00Z,28.8425,-94.2433,2.0,226.5714266,23.20183182,-99999.0,'11111222,11111222,99999999' 
TABS,ioos:station:wmo:42050:1,2008-01-02T11:30:00Z,28.8425,-94.2433,2.0,230.673975,16.66330399,-99999.0,'11111222,11111222,99999999' 
TABS,ioos:station:wmo:42050:1,2008-01-02T12:00:00Z,28.8425,-94.2433,2.0,234.7422894,15.92030465,-99999.0,'11111222,11111222,99999999' 
TABS,ioos:station:wmo:42050:1,2008-01-02T12:30:00Z,28.8425,-94.2433,2.0,248.9415885,18.03439214,-99999.0,'11111222,11111222,99999999' 
TABS,ioos:station:wmo:42050:1,2008-01-02T13:00:00Z,28.8425,-94.2433,2.0,257.4337581,13.42149023,-99999.0,'11111222,11111222,99999999' 
TABS,ioos:station:wmo:42050:1,2008-01-02T13:30:00Z,28.8425,-94.2433,2.0,239.0177001,10.80098144,-99999.0,'11111222,11111222,99999999' 
TABS,ioos:station:wmo:42050:1,2008-01-02T14:00:00Z,28.8425,-94.2433,2.0,283.9125033,13.4340798,-99999.0,'11111222,11111222,99999999' 
TABS,ioos:station:wmo:42050:1,2008-01-02T14:30:00Z,28.8425,-94.2433,2.0,281.7931073,8.611765208,-99999.0,'11133222,11111222,99999999' 
TABS,ioos:station:wmo:42050:1,2008-01-02T15:00:00Z,28.8425,-94.2433,2.0,279.6538735,9.362574432,-99999.0,'11133222,11111222,99999999' 
TABS,ioos:station:wmo:42050:1,2008-01-02T15:30:00Z,28.8425,-94.2433,2.0,283.974201,8.903488081,-99999.0,'11133222,11111222,99999999' 
TABS,ioos:station:wmo:42050:1,2008-01-02T16:00:00Z,28.8425,-94.2433,2.0,346.6852287,3.082872038,-99999.0,'11133222,11111222,99999999' 
TABS,ioos:station:wmo:42050:1,2008-01-02T16:30:00Z,28.8425,-94.2433,2.0,315.2997676,8.117696718,-99999.0,'11133222,11111222,99999999' 
TABS,ioos:station:wmo:42050:1,2008-01-02T17:00:00Z,28.8425,-94.2433,2.0,301.1609214,8.986578882,-99999.0,'11133222,11111222,99999999' 
TABS,ioos:station:wmo:42050:1,2008-01-02T17:30:00Z,28.8425,-94.2433,2.0,295.6833913,6.391439587,-99999.0,'11133222,11111222,99999999' 
TABS,ioos:station:wmo:42050:1,2008-01-02T18:00:00Z,28.8425,-94.2433,2.0,323.8317389,6.862514117,-99999.0,'11133222,11111222,99999999' 
TABS,ioos:station:wmo:42050:1,2008-01-02T18:30:00Z,28.8425,-94.2433,2.0,272.4685331,3.483231258,-99999.0,'11133222,11111222,99999999' 
TABS,ioos:station:wmo:42050:1,2008-01-02T19:00:00Z,28.8425,-94.2433,2.0,290.6774042,3.87992268,-99999.0,'11133222,11111222,99999999' 
TABS,ioos:station:wmo:42050:1,2008-01-02T19:30:00Z,28.8425,-94.2433,2.0,237.6943886,3.442920272,-99999.0,'11133222,11111222,99999999' 
TABS,ioos:station:wmo:42050:1,2008-01-02T20:00:00Z,28.8425,-94.2433,2.0,258.4296341,2.592682009,-99999.0,'11133222,11111222,99999999' 
TABS,ioos:station:wmo:42050:1,2008-01-02T20:30:00Z,28.8425,-94.2433,2.0,241.9370058,3.422352992,-99999.0,'11133222,11111222,99999999' 
TABS,ioos:station:wmo:42050:1,2008-01-02T21:00:00Z,28.8425,-94.2433,2.0,236.2871479,7.080748548,-99999.0,'11133222,11111222,99999999' 
TABS,ioos:station:wmo:42050:1,2008-01-02T21:30:00Z,28.8425,-94.2433,2.0,162.1960221,2.583737603,-99999.0,'11133222,11111222,99999999' 
TABS,ioos:station:wmo:42050:1,2008-01-02T22:00:00Z,28.8425,-94.2433,2.0,227.952417,4.255361324,-99999.0,'11133222,11111222,99999999' 
TABS,ioos:station:wmo:42050:1,2008-01-02T22:30:00Z,28.8425,-94.2433,2.0,194.5963309,4.960090725,-99999.0,'11133222,11111222,99999999' 
TABS,ioos:station:wmo:42050:1,2008-01-02T23:00:00Z,28.8425,-94.2433,2.0,207.107849,2.830989226,-99999.0,'11133222,11111222,99999999' 
TABS,ioos:station:wmo:42050:1,2008-01-02T23:30:00Z,28.8425,-94.2433,2.0,193.4363092,3.012457469,-99999.0,'11133222,11111222,99999999' 
TABS,ioos:station:wmo:42050:1,2008-01-03T00:00:00Z,28.8425,-94.2433,2.0,240.1475726,2.651867267,-99999.0,'11133222,11111222,99999999' 
TABS,ioos:station:wmo:42050:1,2008-01-03T00:30:00Z,28.8425,-94.2433,2.0,289.573501,0.477598157,-99999.0,'11133222,11111222,99999999' 
TABS,ioos:station:wmo:42050:1,2008-01-03T01:00:00Z,28.8425,-94.2433,2.0,263.4533036,2.456013029,-99999.0,'11133222,11111222,99999999' 
TABS,ioos:station:wmo:42050:1,2008-01-03T01:30:00Z,28.8425,-94.2433,2.0,257.0049927,0.533666563,-99999.0,'11133222,11111222,99999999' 
TABS,ioos:station:wmo:42050:1,2008-01-03T02:00:00Z,28.8425,-94.2433,2.0,48.81417114,0.956713123,-99999.0,'11133222,11111222,99999999' 
TABS,ioos:station:wmo:42050:1,2008-01-03T02:30:00Z,28.8425,-94.2433,2.0,286.9758807,3.973109613,-99999.0,'11133222,11111222,99999999' 
TABS,ioos:station:wmo:42050:1,2008-01-03T03:00:00Z,28.8425,-94.2433,2.0,338.6132117,2.824499956,-99999.0,'11133222,11111222,99999999' 
TABS,ioos:station:wmo:42050:1,2008-01-03T03:30:00Z,28.8425,-94.2433,2.0,50.6731141,2.145972973,-99999.0,'11133222,11111222,99999999' 
TABS,ioos:station:wmo:42050:1,2008-01-03T04:00:00Z,28.8425,-94.2433,2.0,142.8354016,0.778010283,-99999.0,'11133222,11111222,99999999' 
TABS,ioos:station:wmo:42050:1,2008-01-03T04:30:00Z,28.8425,-94.2433,2.0,2.290815145,2.752199121,-99999.0,'11133222,11111222,99999999' 
TABS,ioos:station:wmo:42050:1,2008-01-03T05:00:00Z,28.8425,-94.2433,2.0,235.5792839,4.351976562,-99999.0,'11133222,11111222,99999999' 
TABS,ioos:station:wmo:42050:1,2008-01-03T05:30:00Z,28.8425,-94.2433,2.0,198.3624435,5.015376357,-99999.0,'11133222,11111222,99999999' 
TABS,ioos:station:wmo:42050:1,2008-01-03T06:00:00Z,28.8425,-94.2433,2.0,226.0904034,7.800801241,-99999.0,'11133222,11111222,99999999' 
TABS,ioos:station:wmo:42050:1,2008-01-03T06:30:00Z,28.8425,-94.2433,2.0,205.1039604,10.70082707,-99999.0,'11111222,11111222,99999999' 
TABS,ioos:station:wmo:42050:1,2008-01-03T07:00:00Z,28.8425,-94.2433,2.0,194.4031938,10.97496241,-99999.0,'11111222,11111222,99999999' 
TABS,ioos:station:wmo:42050:1,2008-01-03T07:30:00Z,28.8425,-94.2433,2.0,216.5678492,12.15216853,-99999.0,'11111222,11111222,99999999' 
TABS,ioos:station:wmo:42050:1,2008-01-03T08:00:00Z,28.8425,-94.2433,2.0,221.7721451,15.07113798,-99999.0,'11111222,11111222,99999999' 
TABS,ioos:station:wmo:42050:1,2008-01-03T08:30:00Z,28.8425,-94.2433,2.0,215.3660461,15.54935368,-99999.0,'11111222,11111222,99999999' 
TABS,ioos:station:wmo:42050:1,2008-01-03T09:00:00Z,28.8425,-94.2433,2.0,228.9832008,15.26796647,-99999.0,'11111222,11111222,99999999' 
TABS,ioos:station:wmo:42050:1,2008-01-03T09:30:00Z,28.8425,-94.2433,2.0,231.5171917,15.13799524,-99999.0,'11111222,11111222,99999999' 
TABS,ioos:station:wmo:42050:1,2008-01-03T10:00:00Z,28.8425,-94.2433,2.0,234.6067079,13.34643398,-99999.0,'11111222,11111222,99999999' 
TABS,ioos:station:wmo:42050:1,2008-01-03T10:30:00Z,28.8425,-94.2433,2.0,236.1300745,15.93384134,-99999.0,'11111222,11111222,99999999' 
TABS,ioos:station:wmo:42050:1,2008-01-03T11:00:00Z,28.8425,-94.2433,2.0,248.8739075,12.12489175,-99999.0,'11111222,11111222,99999999' 
TABS,ioos:station:wmo:42050:1,2008-01-03T11:30:00Z,28.8425,-94.2433,2.0,261.0247394,13.33324042,-99999.0,'11111222,11111222,99999999' 
TABS,ioos:station:wmo:42050:1,2008-01-03T12:00:00Z,28.8425,-94.2433,2.0,250.5549897,13.81813663,-99999.0,'11111222,11111222,99999999' 
TABS,ioos:station:wmo:42050:1,2008-01-03T12:30:00Z,28.8425,-94.2433,2.0,280.193624,14.69188892,-99999.0,'11111222,11111222,99999999' 
TABS,ioos:station:wmo:42050:1,2008-01-03T13:00:00Z,28.8425,-94.2433,2.0,276.7650023,12.22510532,-99999.0,'11111222,11111222,99999999' 
TABS,ioos:station:wmo:42050:1,2008-01-03T13:30:00Z,28.8425,-94.2433,2.0,287.2700111,17.41510264,-99999.0,'11111222,11111222,99999999' 
TABS,ioos:station:wmo:42050:1,2008-01-03T14:00:00Z,28.8425,-94.2433,2.0,284.0287429,17.61536261,-99999.0,'11111222,11111222,99999999' 
TABS,ioos:station:wmo:42050:1,2008-01-03T14:30:00Z,28.8425,-94.2433,2.0,307.70981,14.87759725,-99999.0,'11111222,11111222,99999999' 
TABS,ioos:station:wmo:42050:1,2008-01-03T15:00:00Z,28.8425,-94.2433,2.0,315.4224163,18.23677877,-99999.0,'11111222,11111222,99999999' 
TABS,ioos:station:wmo:42050:1,2008-01-03T15:30:00Z,28.8425,-94.2433,2.0,306.5503468,16.12025124,-99999.0,'11111222,11111222,99999999' 
TABS,ioos:station:wmo:42050:1,2008-01-03T16:00:00Z,28.8425,-94.2433,2.0,312.5859806,15.44277825,-99999.0,'11111222,11111222,99999999' 
TABS,ioos:station:wmo:42050:1,2008-01-03T16:30:00Z,28.8425,-94.2433,2.0,312.7758579,15.66715035,-99999.0,'11111222,11111222,99999999' 
TABS,ioos:station:wmo:42050:1,2008-01-03T17:00:00Z,28.8425,-94.2433,2.0,315.7964469,13.7404112,-99999.0,'11111222,11111222,99999999' 
TABS,ioos:station:wmo:42050:1,2008-01-03T17:30:00Z,28.8425,-94.2433,2.0,314.0983596,12.12838406,-99999.0,'11111222,11111222,99999999' 
TABS,ioos:station:wmo:42050:1,2008-01-03T18:00:00Z,28.8425,-94.2433,2.0,304.7655369,10.34698024,-99999.0,'11111222,11111222,99999999' 
TABS,ioos:station:wmo:42050:1,2008-01-03T18:30:00Z,28.8425,-94.2433,2.0,297.0793587,11.46701792,-99999.0,'11111222,11111222,99999999' 
TABS,ioos:station:wmo:42050:1,2008-01-03T19:00:00Z,28.8425,-94.2433,2.0,295.6548908,10.69422741,-99999.0,'11111222,11111222,99999999' 
TABS,ioos:station:wmo:42050:1,2008-01-03T19:30:00Z,28.8425,-94.2433,2.0,272.179912,7.625516376,-99999.0,'11133222,11111222,99999999' 
TABS,ioos:station:wmo:42050:1,2008-01-03T20:00:00Z,28.8425,-94.2433,2.0,262.5830883,8.289348587,-99999.0,'11133222,11111222,99999999' 
TABS,ioos:station:wmo:42050:1,2008-01-03T20:30:00Z,28.8425,-94.2433,2.0,253.4015135,7.596532104,-99999.0,'11133222,11111222,99999999' 
TABS,ioos:station:wmo:42050:1,2008-01-03T21:00:00Z,28.8425,-94.2433,2.0,254.160399,9.635860107,-99999.0,'11133222,11111222,99999999' 
TABS,ioos:station:wmo:42050:1,2008-01-03T21:30:00Z,28.8425,-94.2433,2.0,265.1060635,5.861365029,-99999.0,'11133222,11111222,99999999' 
TABS,ioos:station:wmo:42050:1,2008-01-03T22:00:00Z,28.8425,-94.2433,2.0,257.9441814,8.139508585,-99999.0,'11133222,11111222,99999999' 
TABS,ioos:station:wmo:42050:1,2008-01-03T22:30:00Z,28.8425,-94.2433,2.0,238.0056412,5.341329423,-99999.0,'11133222,11111222,99999999' 
TABS,ioos:station:wmo:42050:1,2008-01-03T23:00:00Z,28.8425,-94.2433,2.0,275.17923,3.323567361,-99999.0,'11133222,11111222,99999999' 
TABS,ioos:station:wmo:42050:1,2008-01-03T23:30:00Z,28.8425,-94.2433,2.0,293.3624251,3.681847362,-99999.0,'11133222,11111222,99999999' 
TABS,ioos:station:wmo:42050:1,2008-01-04T00:00:00Z,28.8425,-94.2433,2.0,320.7108955,4.405927825,-99999.0,'11133222,11111222,99999999' 
TABS,ioos:station:wmo:42050:1,2008-01-04T00:30:00Z,28.8425,-94.2433,2.0,332.848454,6.113730449,-99999.0,'11133222,11111222,99999999' 
TABS,ioos:station:wmo:42050:1,2008-01-04T01:00:00Z,28.8425,-94.2433,2.0,297.4536434,2.884874347,-99999.0,'11133222,11111222,99999999' 
TABS,ioos:station:wmo:42050:1,2008-01-04T01:30:00Z,28.8425,-94.2433,2.0,287.5173788,3.355607248,-99999.0,'11133222,11111222,99999999' 
TABS,ioos:station:wmo:42050:1,2008-01-04T02:00:00Z,28.8425,-94.2433,2.0,304.0030095,3.558454721,-99999.0,'11133222,11111222,99999999' 
TABS,ioos:station:wmo:42050:1,2008-01-04T02:30:00Z,28.8425,-94.2433,2.0,259.3799486,2.116246677,-99999.0,'11133222,11111222,99999999' 
TABS,ioos:station:wmo:42050:1,2008-01-04T03:00:00Z,28.8425,-94.2433,2.0,317.5921763,1.72002907,-99999.0,'11133222,11111222,99999999' 
TABS,ioos:station:wmo:42050:1,2008-01-04T03:30:00Z,28.8425,-94.2433,2.0,321.2037491,2.617479704,-99999.0,'11133222,11111222,99999999' 
TABS,ioos:station:wmo:42050:1,2008-01-04T04:00:00Z,28.8425,-94.2433,2.0,278.9855997,2.369071548,-99999.0,'11133222,11111222,99999999' 
TABS,ioos:station:wmo:42050:1,2008-01-04T04:30:00Z,28.8425,-94.2433,2.0,259.7170681,2.296889201,-99999.0,'11133222,11111222,99999999' 
TABS,ioos:station:wmo:42050:1,2008-01-04T05:00:00Z,28.8425,-94.2433,2.0,130.1919521,1.518551942,-99999.0,'11133222,11111222,99999999' 
TABS,ioos:station:wmo:42050:1,2008-01-04T05:30:00Z,28.8425,-94.2433,2.0,203.7570175,5.386445953,-99999.0,'11133222,11111222,99999999' 
TABS,ioos:station:wmo:42050:1,2008-01-04T06:00:00Z,28.8425,-94.2433,2.0,232.8828052,5.568051724,-99999.0,'11133222,11111222,99999999' 
TABS,ioos:station:wmo:42050:1,2008-01-04T06:30:00Z,28.8425,-94.2433,2.0,203.8612543,7.49022029,-99999.0,'11133222,11111222,99999999' 
TABS,ioos:station:wmo:42050:1,2008-01-04T07:00:00Z,28.8425,-94.2433,2.0,203.1983258,7.539615375,-99999.0,'11133222,11111222,99999999' 
TABS,ioos:station:wmo:42050:1,2008-01-04T07:30:00Z,28.8425,-94.2433,2.0,201.228761,9.665924684,-99999.0,'11133222,11111222,99999999' 
TABS,ioos:station:wmo:42050:1,2008-01-04T08:00:00Z,28.8425,-94.2433,2.0,212.8961231,12.81480394,-99999.0,'11111222,11111222,99999999' 
TABS,ioos:station:wmo:42050:1,2008-01-04T08:30:00Z,28.8425,-94.2433,2.0,218.6669717,11.98789806,-99999.0,'11111222,11111222,99999999' 
TABS,ioos:station:wmo:42050:1,2008-01-04T09:00:00Z,28.8425,-94.2433,2.0,219.5334921,11.8768346,-99999.0,'11111222,11111222,99999999' 
TABS,ioos:station:wmo:42050:1,2008-01-04T09:30:00Z,28.8425,-94.2433,2.0,232.0028896,14.44079291,-99999.0,'11111222,11111222,99999999' 
TABS,ioos:station:wmo:42050:1,2008-01-04T10:00:00Z,28.8425,-94.2433,2.0,217.1415593,14.32616138,-99999.0,'11111222,11111222,99999999' 
TABS,ioos:station:wmo:42050:1,2008-01-04T10:30:00Z,28.8425,-94.2433,2.0,249.9033109,12.107126,-99999.0,'11111222,11111222,99999999' 
TABS,ioos:station:wmo:42050:1,2008-01-04T11:00:00Z,28.8425,-94.2433,2.0,236.7848544,12.70584511,-99999.0,'11111222,11111222,99999999' 
TABS,ioos:station:wmo:42050:1,2008-01-04T11:30:00Z,28.8425,-94.2433,2.0,237.5205838,11.1547389,-99999.0,'11111222,11111222,99999999' 
TABS,ioos:station:wmo:42050:1,2008-01-04T12:00:00Z,28.8425,-94.2433,2.0,252.636802,11.66135927,-99999.0,'11111222,11111222,99999999' 
TABS,ioos:station:wmo:42050:1,2008-01-04T12:30:00Z,28.8425,-94.2433,2.0,288.1256235,14.62574784,-99999.0,'11111222,11111222,99999999' 
TABS,ioos:station:wmo:42050:1,2008-01-04T13:00:00Z,28.8425,-94.2433,2.0,282.7456806,12.91830097,-99999.0,'11111222,11111222,99999999' 
TABS,ioos:station:wmo:42050:1,2008-01-04T13:30:00Z,28.8425,-94.2433,2.0,269.6328268,14.06028805,-99999.0,'11111222,11111222,99999999' 
TABS,ioos:station:wmo:42050:1,2008-01-04T14:00:00Z,28.8425,-94.2433,2.0,295.7610963,16.56642387,-99999.0,'11111222,11111222,99999999' 
TABS,ioos:station:wmo:42050:1,2008-01-04T14:30:00Z,28.8425,-94.2433,2.0,294.5077688,16.44122866,-99999.0,'11111222,11111222,99999999' 
TABS,ioos:station:wmo:42050:1,2008-01-04T15:00:00Z,28.8425,-94.2433,2.0,302.5643503,14.67742825,-99999.0,'11111222,11111222,99999999' 
TABS,ioos:station:wmo:42050:1,2008-01-04T15:30:00Z,28.8425,-94.2433,2.0,312.6062436,16.58906266,-99999.0,'11111222,11111222,99999999' 
TABS,ioos:station:wmo:42050:1,2008-01-04T16:00:00Z,28.8425,-94.2433,2.0,302.8650451,16.75091042,-99999.0,'11111222,11111222,99999999' 